[TLELIST] Archives

 

[list_settings.list_name] Current TLEs

March 19th 2014 PDT

HST 1 20580U 90037B 14077.75109080 .00004197 00000-0 27714-3 0 4612 2 20580 028.4697 271.4697 0003533 042.8441 018.5049 15.04938338111077 ISS (ZARYA) 1 25544U 98067A 14078.18513273 .00000053 00000-0 87752-5 0 8991 2 25544 051.6496 185.6786 0003785 318.1042 113.7869 15.50692087877365 CXO 1 25867U 99040B 14080.61751496 .00000412 00000-0 00000+0 0 78 2 25867 076.6810 324.6236 8238818 275.1569 359.9093 00.37802876 11581 ____________________________________________________________________ These 2-Line ...Continue Reading

[list_settings.list_name] Current TLEs

March 18th 2014 PDT

HST 1 20580U 90037B 14076.04027184 .00003773 00000-0 24807-3 0 4605 2 20580 028.4695 282.7074 0003473 025.9421 108.3135 15.04925377110827 ISS (ZARYA) 1 25544U 98067A 14077.41932594 .00000053 00000-0 87752-5 0 8931 2 25544 051.6471 189.4707 0003601 320.9183 153.0324 15.50640907877241 CXO 1 25867U 99040B 14077.97330360 .00000397 00000-0 00000+0 0 67 2 25867 076.6752 324.7551 8241458 275.1618 000.0660 00.37806056 11573 ____________________________________________________________________ These 2-Line ...Continue Reading

[list_settings.list_name] Current TLEs

March 17th 2014 PDT

HST 1 20580U 90037B 14076.04027184 .00003773 00000-0 24807-3 0 4605 2 20580 028.4695 282.7074 0003473 025.9421 108.3135 15.04925377110827 ISS (ZARYA) 1 25544U 98067A 14076.45317676 .00009513 00000-0 17084-3 0 8863 2 25544 051.6472 194.2598 0003107 308.0719 168.9268 15.50600330877098 CXO 1 25867U 99040B 14077.97330360 .00000397 00000-0 00000+0 0 67 2 25867 076.6752 324.7551 8241458 275.1618 000.0660 00.37806056 11573 ____________________________________________________________________ These 2-Line ...Continue Reading

[list_settings.list_name] Current TLEs

March 16th 2014 PDT

HST 1 20580U 90037B 14074.98081012 .00003959 00000-0 26092-3 0 4598 2 20580 028.4696 289.6673 0003537 015.1966 127.8575 15.04918113110661 ISS (ZARYA) 1 25544U 98067A 14075.41541321 .00017090 00000-0 29716-3 0 8790 2 25544 051.6489 199.4020 0004348 309.0870 130.3561 15.50899759876936 CXO 1 25867U 99040B 14077.97330360 .00000397 00000-0 00000+0 0 67 2 25867 076.6752 324.7551 8241458 275.1618 000.0660 00.37806056 11573 ____________________________________________________________________ These 2-Line ...Continue Reading

[list_settings.list_name] Current TLEs

March 15th 2014 PDT

HST 1 20580U 90037B 14073.84476853 .00004257 00000-0 28152-3 0 4583 2 20580 028.4698 297.1294 0003464 003.6394 092.5402 15.04910769110488 ISS (ZARYA) 1 25544U 98067A 14074.32156601 .00016359 00000-0 28522-3 0 8726 2 25544 051.6478 204.8276 0004349 305.7015 142.5704 15.50860161876763 CXO 1 25867U 99040B 14075.33048251 .00000447 00000-0 00000+0 0 55 2 25867 076.6661 324.9080 8242267 275.1746 000.3574 00.37803150 11560 ____________________________________________________________________ These 2-Line ...Continue Reading

[list_settings.list_name] Current TLEs

March 14th 2014 PDT

HST 1 20580U 90037B 14072.78082694 .00004099 00000-0 27068-3 0 4579 2 20580 028.4698 304.1180 0003329 352.9529 087.7726 15.04903865110328 ISS (ZARYA) 1 25544U 98067A 14073.42193271 .00011693 00000-0 20646-3 0 8646 2 25544 051.6468 209.2897 0004431 303.4052 158.8564 15.50825929876620 CXO 1 25867U 99040B 14075.33048251 .00000447 00000-0 00000+0 0 55 2 25867 076.6661 324.9080 8242267 275.1746 000.3574 00.37803150 11560 ____________________________________________________________________ These 2-Line ...Continue Reading

[list_settings.list_name] Current TLEs

March 13th 2014 PDT

HST 1 20580U 90037B 14071.13218308 .00003832 00000-0 25234-3 0 4566 2 20580 028.4702 314.9466 0003150 334.8851 156.4768 15.04888685110084 ISS (ZARYA) 1 25544U 98067A 14072.51672818 .00023600 00000-0 40891-3 0 8582 2 25544 051.6442 213.7870 0004244 294.3235 150.8901 15.50771622876487 CXO 1 25867U 99040B 14072.68618024 .00000479 00000-0 00000+0 0 45 2 25867 076.6580 325.0362 8242650 275.2143 000.3693 00.37798500 11556 ____________________________________________________________________ These 2-Line ...Continue Reading

[list_settings.list_name] Current TLEs

March 12th 2014 PDT

HST 1 20580U 90037B 14071.13218308 .00003832 00000-0 25234-3 0 4566 2 20580 028.4702 314.9466 0003150 334.8851 156.4768 15.04888685110084 ISS (ZARYA) 1 25544U 98067A 14071.35611154 .00023232 00000-0 39368-3 0 8521 2 25544 051.6471 219.5396 0002705 242.4209 197.0793 15.51412809876304 CXO 1 25867U 99040B 14072.68618024 .00000479 00000-0 00000+0 0 45 2 25867 076.6580 325.0362 8242650 275.2143 000.3693 00.37798500 11556 ____________________________________________________________________ These 2-Line ...Continue Reading

[list_settings.list_name] Current TLEs

March 11th 2014 PDT

HST 1 20580U 90037B 14069.14061502 .00004544 00000-0 30157-3 0 4556 2 20580 028.4712 328.0252 0003141 311.6590 168.9479 15.04871739109781 ISS (ZARYA) 1 25544U 98067A 14070.45200475 .00021868 00000-0 37171-3 0 8478 2 25544 051.6427 224.0290 0003455 276.1429 150.5503 15.51362901876164 CXO 1 25867U 99040B 14072.68618024 .00000479 00000-0 00000+0 0 45 2 25867 076.6580 325.0362 8242650 275.2143 000.3693 00.37798500 11556 ____________________________________________________________________ These 2-Line ...Continue Reading

[list_settings.list_name] Current TLEs

March 10th 2014 PDT

HST 1 20580U 90037B 14069.14061502 .00004544 00000-0 30157-3 0 4556 2 20580 028.4712 328.0252 0003141 311.6590 168.9479 15.04871739109781 ISS (ZARYA) 1 25544U 98067A 14069.48084662 .00022227 00000-0 37824-3 0 8416 2 25544 051.6478 228.8468 0002920 229.4159 169.9486 15.51322408876012 CXO 1 25867U 99040B 14070.04146209 .00000456 00000-0 00000+0 0 38 2 25867 076.6466 325.1433 8245418 275.2690 000.2930 00.37798567 11546 ____________________________________________________________________ These 2-Line ...Continue Reading
  • This mailing list is a public mailing list - anyone may join or leave, at any time.
  • This mailing list is announce-only.

International Space Station (ISS) / Hubble Space Telescope (HST) / Chandra X-Ray Observatory Orbital Data via EMAIL

Privacy Policy:

Private list